User: anonymous   Login
Location: Meriden
(44.0740°N, 93.3870°W)
Time: 18:20:16
(UTC-05:00)
Language:

Hamsat - Orbit

View from above orbital plane
View from above orbital plane
View from above satellite
View from above satellite

Ground track
Ground track

The orbit data is extracted from the following two-line orbital elements,

1 28650U 05017B   15214.90495370  .00000957  00000-0  11073-3 0  9990
2 28650 097.5776 205.2626 0022693 234.8474 125.0617 14.87543846554399
Epoch (UTC): 02 August 2015 21:43:08
Eccentricity: 0.0022693
inclination: 97.5776°
perigee height: 590 km
apogee height: 621 km
right ascension of ascending node: 205.2626°
argument of perigee: 234.8474°
revolutions per day: 14.87543846
mean anomaly at epoch: 125.0617°
orbit number at epoch: 55439

The dashed part of the orbit path shows where the satellite is in the earth's shadow,  

DLR